This is the latest recevied weather packets stored in our database for station/object KC5TXI. If no packets are shown the sender has not sent any weather packets the latest 10 day(s).
| Time | Temp. | Humidity | Pressure | Rain* | Wind** | Luminosity | Snow |
|---|---|---|---|---|---|---|---|
| 1787494369 | 32.22° C | 48% | 1017.2 hPa | 0 mm | - | 121 W/m² | - |
| 1787494066 | 31.67° C | 49% | 1017.4 hPa | 0 mm | - | 145 W/m² | - |
| 1787493762 | 31.67° C | 49% | 1017.2 hPa | 0 mm | - | 107 W/m² | - |
| 1787493461 | 31.67° C | 50% | 1017.2 hPa | 0 mm | - | 102 W/m² | - |
| 1787493158 | 31.11° C | 50% | 1017.1 hPa | 0 mm | - | 108 W/m² | - |
| 1787492852 | 31.11° C | 52% | 1017.1 hPa | 0 mm | - | 96 W/m² | - |
| 1787492549 | 30.56° C | 53% | 1017.2 hPa | 0 mm | - | 100 W/m² | - |
| 1787492244 | 30.56° C | 55% | 1017.2 hPa | 0 mm | - | 74 W/m² | - |
| 1787491939 | 30° C | 55% | 1017 hPa | 0 mm | - | 67 W/m² | - |
| 1787491634 | 30° C | 55% | 1017 hPa | 0 mm | - | 61 W/m² | - |
| 1787491329 | 29.44° C | 57% | 1016.9 hPa | 0 mm | - | 51 W/m² | - |
| 1787491025 | 29.44° C | 58% | 1016.9 hPa | 0 mm | - | 46 W/m² | - |
| 1787490721 | 28.89° C | 62% | 1016.9 hPa | 0 mm | - | 40 W/m² | - |
| 1787490420 | 28.89° C | 64% | 1016.9 hPa | 0 mm | - | 34 W/m² | - |
| 1787490119 | 28.89° C | 64% | 1016.7 hPa | 0 mm | - | 28 W/m² | - |
| 1787489814 | 28.89° C | 63% | 1016.7 hPa | 0 mm | - | 23 W/m² | - |
| 1787489509 | 28.89° C | 63% | 1016.8 hPa | 0 mm | - | 21 W/m² | - |
| 1787489206 | 28.89° C | 63% | 1016.6 hPa | 0 mm | - | 23 W/m² | - |
| 1787488901 | 28.89° C | 62% | 1016.7 hPa | 0 mm | - | 22 W/m² | - |
| 1787488596 | 28.89° C | 62% | 1016.8 hPa | 0 mm | - | 21 W/m² | - |
| 1787488293 | 28.89° C | 62% | 1016.7 hPa | 0 mm | - | 18 W/m² | - |
| 1787487990 | 28.89° C | 61% | 1016.8 hPa | 0 mm | - | 16 W/m² | - |
| 1787487686 | 29.44° C | 61% | 1016.4 hPa | 0 mm | - | 12 W/m² | - |
| 1787487382 | 28.89° C | 61% | 1016.4 hPa | 0 mm | - | 8 W/m² | - |
| 1787487079 | 28.89° C | 61% | 1016.5 hPa | 0 mm | - | 6 W/m² | - |
* Rain latest hour (hover to see other rain measurements)
** Current wind speed in m/s (hover to see current wind gust speed)